M I D A S
Marine Information and Data Acquisition System
Tripno 812 of the Zeeleeuw from 2004-11-24 07:45:28 to 2004-11-24 14:29:23
Back to CruiseResearch ActivitiesStationsMapUnderway DataData graphs

EquipmentUnitsComments
TimeDGPSUTC
LatitudeDGPSDM.mWGS84
LongitudeDGPSDM.mWGS84
SpeedMeteo Stationm/sRelative wind speed
DirectionMeteo StationdegRelative wind direction
TemperatureMeteo Stationdeg CelciusAir temperature
PressureMeteo StationPaAtmospheric pressure
HumidityMeteo Station%Relative humidity
Missing or incorrect values are displayed as -999
Metereological data collected by the RV Zeeleeuw from 2004-11-24 07:38:26 to 2004-11-24 14:40:34
                                                                                    Next 1000 lines
Time Latitude Longitude Speed Direction Temperature Pressure Humidity
2004-11-24 07:38:36 51°13.617 2°56.057 2.3 59 6 103300 80
2004-11-24 07:38:42 51°13.618 2°56.053 2.3 57 6 103300 80
2004-11-24 07:38:47 51°13.619 2°56.049 2 57 6 103290 80
2004-11-24 07:38:52 51°13.62 2°56.044 1.7 62 6 103290 80
2004-11-24 07:38:56 51°13.621 2°56.041 1.9 70 6.1 103300 80
2004-11-24 07:39:02 51°13.623 2°56.034 2.1 67 6.1 103300 80
2004-11-24 07:39:08 51°13.624 2°56.028 2.2 95 6 103300 80
2004-11-24 07:39:12 51°13.625 2°56.023 1.7 104 6 103300 80
2004-11-24 07:39:16 51°13.626 2°56.018 1.7 96 6.1 103300 80
2004-11-24 07:39:21 51°13.628 2°56.012 2 92 6.1 103300 80
2004-11-24 07:39:26 51°13.629 2°56.006 2.3 88 6.1 103300 80
2004-11-24 07:39:33 51°13.63 2°55.999 1.7 74 6.1 103300 80
2004-11-24 07:39:36 51°13.631 2°55.997 3 69 6.1 103300 80
2004-11-24 07:39:41 51°13.631 2°55.995 2.3 68 6.1 103300 80
2004-11-24 07:39:46 51°13.631 2°55.994 3.3 57 6.1 103300 80
2004-11-24 07:39:53 51°13.631 2°55.992 2.5 51 6.1 103300 80
2004-11-24 07:39:58 51°13.631 2°55.99 3.5 61 6.1 103290 80
2004-11-24 07:40:00 51°13.632 2°55.988 3.4 55 6.1 103290 80
2004-11-24 07:40:04 51°13.632 2°55.986 3.1 51 6.1 103290 80
2004-11-24 07:40:12 51°13.633 2°55.98 2.6 57 6.1 103290 80
2004-11-24 07:40:24 51°13.635 2°55.969 2.5 53 6.1 103290 80
2004-11-24 07:40:34 51°13.638 2°55.959 2.2 59 6.1 103300 80
2004-11-24 07:40:38 51°13.64 2°55.955 1.7 60 6 103290 80
2004-11-24 07:40:45 51°13.642 2°55.947 1.3 57 6 103290 80
2004-11-24 07:40:48 51°13.643 2°55.943 1.3 54 6 103300 80
2004-11-24 07:40:52 51°13.645 2°55.938 1.5 56 6 103300 80
2004-11-24 07:40:59 51°13.648 2°55.929 1.4 63 6 103300 80
2004-11-24 07:41:05 51°13.651 2°55.92 1.3 59 6 103300 80
2004-11-24 07:41:10 51°13.654 2°55.912 1.4 57 6 103300 80
2004-11-24 07:41:12 51°13.655 2°55.909 0.9 64 6 103300 80
2004-11-24 07:41:20 51°13.661 2°55.896 0.9 68 6 103300 80
2004-11-24 07:41:25 51°13.664 2°55.887 0.8 89 6 103300 80
2004-11-24 07:41:30 51°13.667 2°55.879 0.9 88 6 103300 80
2004-11-24 07:41:35 51°13.67 2°55.871 0.9 94 6 103300 80
2004-11-24 07:41:40 51°13.673 2°55.863 1.2 114 6 103300 80
2004-11-24 07:41:44 51°13.675 2°55.856 1.5 110 6 103300 80
2004-11-24 07:41:49 51°13.678 2°55.848 1.5 103 6 103300 80
2004-11-24 07:41:55 51°13.681 2°55.838 1.7 106 6 103300 80
2004-11-24 07:42:00 51°13.684 2°55.83 1.6 106 6 103300 80
2004-11-24 07:42:04 51°13.686 2°55.823 1.6 106 6 103300 80
2004-11-24 07:42:09 51°13.688 2°55.815 1.7 108 6 103300 80
2004-11-24 07:42:14 51°13.69 2°55.806 2.1 124 6 103300 80
2004-11-24 07:42:19 51°13.692 2°55.797 3.4 143 6 103300 80
2004-11-24 07:42:25 51°13.694 2°55.786 2.9 127 6 103300 80
2004-11-24 07:42:30 51°13.696 2°55.778 2.4 110 6 103300 80
2004-11-24 07:42:33 51°13.697 2°55.772 2.1 118 6 103300 80
2004-11-24 07:42:40 51°13.699 2°55.762 2.2 92 6 103290 80
2004-11-24 07:42:44 51°13.699 2°55.758 1.9 86 6 103290 80
2004-11-24 07:42:49 51°13.7 2°55.755 2.4 46 6 103300 80
2004-11-24 07:42:52 51°13.701 2°55.754 2.9 71 6 103300 80
2004-11-24 07:42:58 51°13.701 2°55.754 2.1 51 6 103300 80
2004-11-24 07:43:04 51°13.702 2°55.756 1.9 74 6 103300 80
2004-11-24 07:43:09 51°13.702 2°55.758 3 65 6 103300 80
2004-11-24 07:43:23 51°13.703 2°55.76 3.5 109 6 103300 80
2004-11-24 07:43:26 51°13.703 2°55.759 3 113 6 103290 80
2004-11-24 07:43:32 51°13.702 2°55.757 2.5 129 6 103290 80
2004-11-24 07:43:41 51°13.7 2°55.752 2.3 131 6 103290 80
2004-11-24 07:43:44 51°13.7 2°55.75 1.8 126 6 103290 80
2004-11-24 07:43:50 51°13.699 2°55.748 2.2 96 6 103290 80
2004-11-24 07:43:58 51°13.7 2°55.748 1.9 120 6 103300 80
2004-11-24 07:44:02 51°13.701 2°55.748 1.9 109 6 103300 80
2004-11-24 07:44:08 51°13.703 2°55.749 2.5 104 6 103300 80
2004-11-24 07:44:12 51°13.704 2°55.751 3 103 6 103300 80
2004-11-24 07:44:16 51°13.706 2°55.752 2.6 111 6 103300 80
2004-11-24 07:44:20 51°13.708 2°55.753 2.3 112 6 103300 80
2004-11-24 07:44:30 51°13.713 2°55.756 2.1 126 6 103300 80
2004-11-24 07:44:34 51°13.715 2°55.756 2.5 148 6 103300 80
2004-11-24 07:44:40 51°13.716 2°55.757 2.1 157 6 103300 81
2004-11-24 07:44:52 51°13.716 2°55.757 3.5 158 6 103300 81
2004-11-24 07:44:58 51°13.716 2°55.757 2.3 154 6 103300 81
2004-11-24 07:45:02 51°13.717 2°55.757 1.8 188 6 103300 81
2004-11-24 07:45:08 51°13.719 2°55.755 1.4 185 6 103300 81
2004-11-24 07:45:11 51°13.721 2°55.754 1.3 198 6 103300 81
2004-11-24 07:45:16 51°13.724 2°55.752 1.2 199 6 103300 81
2004-11-24 07:45:24 51°13.728 2°55.747 1 189 6 103300 81
2004-11-24 07:45:28 51°13.731 2°55.743 0.7 267 6 103300 81
2004-11-24 07:45:33 51°13.735 2°55.738 0.3 240 6 103300 81
2004-11-24 07:45:38 51°13.74 2°55.731 0.4 237 6 103300 81
2004-11-24 07:45:42 51°13.744 2°55.726 0.6 235 6 103300 81
2004-11-24 07:45:47 51°13.75 2°55.718 0.4 235 6 103300 81
2004-11-24 07:45:52 51°13.756 2°55.71 0.5 235 6 103300 81
2004-11-24 07:45:58 51°13.764 2°55.699 0.5 235 6 103300 81
2004-11-24 07:46:00 51°13.767 2°55.696 0.3 235 6 103300 81
2004-11-24 07:46:08 51°13.779 2°55.682 0.1 235 6 103300 81
2004-11-24 07:46:12 51°13.786 2°55.674 0.1 235 6 103300 81
2004-11-24 07:46:16 51°13.793 2°55.667 0.5 251 6 103300 81
2004-11-24 07:46:22 51°13.804 2°55.656 0.7 325 6 103300 81
2004-11-24 07:46:28 51°13.816 2°55.644 0.6 328 6 103300 81
2004-11-24 07:46:32 51°13.824 2°55.637 1.5 342 6 103300 81
2004-11-24 07:46:38 51°13.837 2°55.626 1.8 4 6 103300 81
2004-11-24 07:46:43 51°13.848 2°55.618 2.1 7 6 103300 81
2004-11-24 07:46:48 51°13.858 2°55.61 2.3 20 6 103300 81
2004-11-24 07:46:52 51°13.867 2°55.603 2.7 22 6 103300 81
2004-11-24 07:46:58 51°13.881 2°55.593 2.6 21 6 103300 81
2004-11-24 07:47:03 51°13.892 2°55.584 2.9 13 6 103300 81
2004-11-24 07:47:08 51°13.904 2°55.576 2.9 14 6 103300 81
2004-11-24 07:47:14 51°13.917 2°55.566 2.9 17 6 103300 81
2004-11-24 07:47:16 51°13.922 2°55.563 2.8 31 6 103300 81
2004-11-24 07:47:23 51°13.939 2°55.552 2.4 31 6 103300 81
2004-11-24 07:47:28 51°13.951 2°55.544 2.3 34 6.1 103300 81
2004-11-24 07:47:32 51°13.96 2°55.537 2.4 32 6.1 103300 81
2004-11-24 07:47:42 51°13.984 2°55.521 2.4   6.1 103300 81
2004-11-24 07:47:44 51°13.989 2°55.518 2 26 6.1 103300 81
2004-11-24 07:47:52 51°14.01 2°55.503 1.7 25 6.1 103300 81
2004-11-24 07:47:56 51°14.02 2°55.496 1.7 25 6.1 103300 81
2004-11-24 07:48:02 51°14.034 2°55.487 2.1 12 6.1 103300 81
2004-11-24 07:48:06 51°14.044 2°55.481 1.7 27 6.1 103300 81
2004-11-24 07:48:12 51°14.058 2°55.47 2.1 12 6.1 103300 81
2004-11-24 07:48:17 51°14.071 2°55.462 2.2 15 6.1 103300 81
2004-11-24 07:48:20 51°14.078 2°55.457 2.4 9 6.1 103300 81
2004-11-24 07:48:24 51°14.089 2°55.449 2.8 13 6 103300 81
2004-11-24 07:48:36 51°14.119 2°55.426 2.8 20 6 103300 81
2004-11-24 07:48:40 51°14.13 2°55.418 2.7 13 6.1 103300 81
2004-11-24 07:48:45 51°14.143 2°55.408 2.7 16 6.1 103300 81
2004-11-24 07:48:49 51°14.153 2°55.399 3 15 6 103300 81
2004-11-24 07:48:56 51°14.17 2°55.382 3.4 11 6 103300 81
2004-11-24 07:49:00 51°14.18 2°55.373 3.2 16 6.1 103300 81
2004-11-24 07:49:05 51°14.193 2°55.36 3.2 16 6.1 103300 81
2004-11-24 07:49:10 51°14.205 2°55.347 3.3 13 6 103300 81
2004-11-24 07:49:15 51°14.217 2°55.332 2.9 19 6 103300 81
2004-11-24 07:49:20 51°14.229 2°55.318 3 13 6 103300 81
2004-11-24 07:49:24 51°14.238 2°55.305 3.7 6 6 103300 81
2004-11-24 07:49:28 51°14.246 2°55.292 3.5 4 6.1 103300 81
2004-11-24 07:49:35 51°14.261 2°55.269 3 1 6.1 103300 81
2004-11-24 07:49:39 51°14.269 2°55.254 2.9 1 6.1 103300 81
2004-11-24 07:49:44 51°14.279 2°55.236 3.7 358 6.1 103300 81
2004-11-24 07:49:49 51°14.289 2°55.217 3.8 358 6.1 103310 81
2004-11-24 07:49:52 51°14.295 2°55.206 3.6 355 6.1 103310 81
2004-11-24 07:49:59 51°14.309 2°55.179 3.8 352 6.1 103300 81
2004-11-24 07:50:04 51°14.319 2°55.159 4.3 356 6.1 103300 81
2004-11-24 07:50:07 51°14.325 2°55.147 3.6 350 6.1 103300 81
2004-11-24 07:50:14 51°14.338 2°55.117 5 352 6.1 103300 81
2004-11-24 07:50:20 51°14.348 2°55.09 4.6 347 6.1 103300 81
2004-11-24 07:50:24 51°14.355 2°55.071 4.4 346 6.1 103300 81
2004-11-24 07:50:30 51°14.364 2°55.043 4.3 349 6.1 103300 81
2004-11-24 07:50:32 51°14.368 2°55.034 4.5 351 6.1 103300 81
2004-11-24 07:50:44 51°14.388 2°54.974 3.7 343 6.1 103300 81
2004-11-24 07:50:50 51°14.397 2°54.943 3.6 347 6.1 103300 81
2004-11-24 07:51:01 51°14.413 2°54.884 4.3 348 6.1 103300 81
2004-11-24 07:51:05 51°14.417 2°54.86 4.3 344 6.1 103310 81
2004-11-24 07:51:14 51°14.429 2°54.81 4.9 345 6.1 103310 81
2004-11-24 07:51:20 51°14.438 2°54.777 4.3 343 6.1 103300 81
2004-11-24 07:51:22 51°14.442 2°54.766 3.8 339 6.1 103300 81
2004-11-24 07:51:42 51°14.477 2°54.66 3.4 345 6.1 103300 81
2004-11-24 07:51:47 51°14.486 2°54.633 3.8 345 6.1 103300 81
2004-11-24 07:51:52 51°14.495 2°54.606 3.9 352 6.1 103300 81
2004-11-24 07:51:57 51°14.505 2°54.58 3.9 358 6.1 103300 81
2004-11-24 07:52:02 51°14.515 2°54.554 3.4 360 6.1 103300 81
2004-11-24 07:52:08 51°14.529 2°54.525 3.4 3 6.1 103310 81
2004-11-24 07:52:12 51°14.538 2°54.505 3.5 1 6.1 103310 81
2004-11-24 07:52:18 51°14.552 2°54.477 3.6 4 6.1 103310 81
2004-11-24 07:52:22 51°14.563 2°54.46 3.4 8 6.1 103310 81
2004-11-24 07:52:28 51°14.58 2°54.435 3.3 10 6.1 103310 81
2004-11-24 07:52:32 51°14.591 2°54.42 3.1 14 6.1 103310 81
2004-11-24 07:52:36 51°14.603 2°54.405 3.3 10 6.1 103310 81
2004-11-24 07:52:50 51°14.645 2°54.354 3.7 13 6.1 103310 80
2004-11-24 07:52:56 51°14.663 2°54.333 3.1 13 6.1 103310 80
2004-11-24 07:53:00 51°14.675 2°54.319 3.1 26 6.1 103310 80
2004-11-24 07:53:05 51°14.691 2°54.301 3.8 25 6.1 103310 80
2004-11-24 07:53:10 51°14.706 2°54.284 3.7 21 6.1 103310 80
2004-11-24 07:53:14 51°14.719 2°54.27 3.3 24 6.1 103310 80
2004-11-24 07:53:30 51°14.769 2°54.219 3.2 34 6.1 103310 80
2004-11-24 07:53:32 51°14.775 2°54.213 3.3 38 6.1 103310 80
2004-11-24 07:53:40 51°14.802 2°54.19 3.3   6.1 103310 80
2004-11-24 07:53:46 51°14.822 2°54.173 3.3 31 6.1 103300 80
2004-11-24 07:53:52 51°14.841 2°54.157 3.7 35 6.1 103300 80
2004-11-24 07:53:56 51°14.855 2°54.147 3.5 33 6.1 103300 80
2004-11-24 07:54:00 51°14.868 2°54.136 3.6 31 6.1 103300 80
2004-11-24 07:54:07 51°14.891 2°54.118 3.8 31 6.1 103300 80
2004-11-24 07:54:12 51°14.908 2°54.105 3.4 29 6.1 103300 80
2004-11-24 07:54:17 51°14.924 2°54.092 3.6 27 6.1 103300 80
2004-11-24 07:54:20 51°14.934 2°54.084 3.3 26 6.1 103300 80
2004-11-24 07:54:24 51°14.947 2°54.073 4.3 19 6.1 103310 80
2004-11-24 07:54:32 51°14.973 2°54.051 3.3 26 6.1 103310 80
2004-11-24 07:54:37 51°14.99 2°54.037 3.1 24 6.1 103300 80
2004-11-24 07:54:42 51°15.006 2°54.024 3.4   6.1 103300 80
2004-11-24 07:54:47 51°15.023 2°54.01 3.9 23 6.1 103300 80
2004-11-24 07:54:50 51°15.033 2°54.002 3.8 22 6.1 103300 80
2004-11-24 07:54:57 51°15.056 2°53.983 3.7 25 6.2 103300 80
2004-11-24 07:55:02 51°15.073 2°53.969 3.4 21 6.2 103300 80
2004-11-24 07:55:06 51°15.087 2°53.959 3.3 26 6.2 103300 80
2004-11-24 07:55:12 51°15.107 2°53.943 3.3 27 6.2 103300 80
2004-11-24 07:55:21 51°15.137 2°53.918 3.4 24 6.2 103300 80
2004-11-24 07:55:27 51°15.158 2°53.902 3.9 17 6.2 103300 80
2004-11-24 07:55:32 51°15.175 2°53.887 3.7 19 6.2 103300 80
2004-11-24 07:55:37 51°15.191 2°53.874 3.4 22 6.2 103300 80
2004-11-24 07:55:40 51°15.201 2°53.865 3.5   6.2 103300 80
2004-11-24 07:55:56 51°15.255 2°53.819 3.7 21 6.2 103300 80
2004-11-24 07:56:02 51°15.276 2°53.802 3.9 18 6.2 103300 80
2004-11-24 07:56:08 51°15.296 2°53.785 3.5 20 6.2 103300 80
2004-11-24 07:56:12 51°15.31 2°53.773 4 16 6.2 103300 80
2004-11-24 07:56:17 51°15.327 2°53.759 4.2 12 6.2 103310 80
2004-11-24 07:56:21 51°15.34 2°53.748 3.6 11 6.2 103310 80
2004-11-24 07:56:28 51°15.364 2°53.729 4.2 14 6.2 103300 80
2004-11-24 07:56:33 51°15.381 2°53.715 4.5 12 6.2 103300 80
2004-11-24 07:56:38 51°15.398 2°53.701 3.6 13 6.2 103300 80
2004-11-24 07:56:42 51°15.412 2°53.689 4.2 15 6.2 103300 80
2004-11-24 07:56:48 51°15.432 2°53.672 3.9 14 6.3 103310 80
2004-11-24 07:56:52 51°15.446 2°53.66 4.1 17 6.3 103310 80
2004-11-24 07:56:56 51°15.459 2°53.649 4 22 6.2 103310 80
2004-11-24 07:57:03 51°15.483 2°53.628 4 28 6.2 103310 80
2004-11-24 07:57:16 51°15.528 2°53.591 4.1 21 6.3 103310 80
2004-11-24 07:57:19 51°15.537 2°53.583 3.6 19 6.3 103310 80
2004-11-24 07:57:24 51°15.555 2°53.568 3.6 31 6.3 103310 80
2004-11-24 07:57:28 51°15.568 2°53.557 3.3 29 6.3 103300 80
2004-11-24 07:57:35 51°15.592 2°53.536 3.7 22 6.3 103300 80
2004-11-24 07:57:40 51°15.609 2°53.521 4 24 6.3 103300 80
2004-11-24 07:57:45 51°15.625 2°53.507 4.1 24 6.3 103300 80
2004-11-24 07:57:48 51°15.636 2°53.498 3.3 30 6.3 103300 80
2004-11-24 07:57:55 51°15.659 2°53.478 3 33 6.3 103300 80
2004-11-24 07:58:00 51°15.676 2°53.464 3.3 27 6.3 103300 80
2004-11-24 07:58:04 51°15.69 2°53.453 3.4 32 6.3 103300 80
2004-11-24 07:58:10 51°15.711 2°53.436 3.5 32 6.4 103290 80
2004-11-24 07:58:15 51°15.728 2°53.422 3.6 21 6.4 103290 80
2004-11-24 07:58:28 51°15.772 2°53.386 3.9 23 6.4 103300 80
2004-11-24 07:58:44 51°15.826 2°53.34 3.5 18 6.3 103300 80
2004-11-24 07:58:50 51°15.846 2°53.322 3.4 15 6.3 103300 80
2004-11-24 07:58:56 51°15.866 2°53.304 3.2 16 6.3 103300 80
2004-11-24 07:59:01 51°15.883 2°53.29 3.4 19 6.3 103300 80
2004-11-24 07:59:04 51°15.893 2°53.281 3.5 11 6.3 103310 80
2004-11-24 07:59:08 51°15.907 2°53.27 3 16 6.3 103310 80
2004-11-24 07:59:26 51°15.966 2°53.215 3.7 19 6.4 103300 80
2004-11-24 07:59:32 51°15.986 2°53.198 3.6 19 6.4 103300 80
2004-11-24 07:59:36 51°16 2°53.187 3.5 24 6.4 103300 80
2004-11-24 07:59:40 51°16.014 2°53.176 2.8 26 6.4 103300 80
2004-11-24 07:59:46 51°16.034 2°53.16 2.7 25 6.4 103310 80
2004-11-24 07:59:49 51°16.044 2°53.152 2.8 26 6.4 103310 80
2004-11-24 07:59:56 51°16.068 2°53.134 3 24 6.4 103300 80
2004-11-24 08:00:01 51°16.085 2°53.121 3.3 24 6.4 103300 80
2004-11-24 08:00:05 51°16.099 2°53.111 3.6 33 6.4 103300 79
2004-11-24 08:00:11 51°16.119 2°53.095 3.3 34 6.4 103300 79
2004-11-24 08:00:16 51°16.136 2°53.082 2.9 31 6.4 103300 79
2004-11-24 08:00:20 51°16.15 2°53.071 3.2 30 6.4 103300 79
2004-11-24 08:00:26 51°16.171 2°53.055 3.4 28 6.4 103300 79
2004-11-24 08:00:31 51°16.188 2°53.042 3 31 6.4 103300 79
2004-11-24 08:00:36 51°16.205 2°53.029 2.8 36 6.4 103300 79
2004-11-24 08:00:41 51°16.222 2°53.016 3.1 25 6.4 103300 79
2004-11-24 08:00:46 51°16.239 2°53.003 3 17 6.4 103300 79
2004-11-24 08:00:52 51°16.259 2°52.987 3.2 21 6.4 103300 79
2004-11-24 08:00:56 51°16.273 2°52.977 2.6 25 6.4 103300 79
2004-11-24 08:00:59 51°16.283 2°52.969 2.6 15 6.4 103300 79
2004-11-24 08:01:06 51°16.307 2°52.951 3.6 12 6.4 103300 79
2004-11-24 08:01:10 51°16.321 2°52.941 3.9 8 6.4 103300 79
2004-11-24 08:01:16 51°16.341 2°52.925 3.6 15 6.4 103300 79
2004-11-24 08:01:21 51°16.358 2°52.912 3.4 20 6.4 103300 79
2004-11-24 08:01:26 51°16.375 2°52.899 3.2 26 6.4 103310 79
2004-11-24 08:01:31 51°16.392 2°52.887 4 23 6.4 103310 79
2004-11-24 08:01:36 51°16.409 2°52.874 4.1 25 6.4 103300 79
2004-11-24 08:01:41 51°16.426 2°52.861 4 26 6.4 103300 79
2004-11-24 08:01:46 51°16.443 2°52.848 3.6 28 6.4 103310 79
2004-11-24 08:01:48 51°16.45 2°52.842 3.4 27 6.4 103310 79
2004-11-24 08:02:01 51°16.494 2°52.807 3.8 10 6.4 103310 79
2004-11-24 08:02:07 51°16.514 2°52.791 4.2 9 6.5 103300 80
2004-11-24 08:02:12 51°16.53 2°52.777 3.4 17 6.5 103300 80
2004-11-24 08:02:17 51°16.547 2°52.764 4.1 17 6.5 103300 80
2004-11-24 08:02:22 51°16.564 2°52.751 4 7 6.5 103300 80
2004-11-24 08:02:26 51°16.578 2°52.741 3.7 22 6.6 103300 80
2004-11-24 08:02:32 51°16.598 2°52.725 4 18 6.6 103300 80
2004-11-24 08:02:36 51°16.612 2°52.715 3.5 19 6.6 103300 80
2004-11-24 08:02:42 51°16.632 2°52.7 4.2 23 6.6 103300 80
2004-11-24 08:02:45 51°16.642 2°52.692 3.2 25 6.6 103300 80
2004-11-24 08:02:52 51°16.666 2°52.674 3.2 30 6.6 103300 80
2004-11-24 08:02:57 51°16.683 2°52.661 3.4 28 6.6 103300 80
2004-11-24 08:03:01 51°16.696 2°52.652 3.4 29 6.6 103300 80
2004-11-24 08:03:07 51°16.716 2°52.637 3.6 31 6.6 103300 80
2004-11-24 08:03:21 51°16.763 2°52.602 3.1 28 6.6 103300 80
2004-11-24 08:03:26 51°16.78 2°52.59 3.1 26 6.6 103300 79
2004-11-24 08:03:31 51°16.796 2°52.577 3.3 24 6.6 103300 79
2004-11-24 08:03:36 51°16.813 2°52.564 3.5 27 6.6 103300 79
2004-11-24 08:03:40 51°16.827 2°52.554 3.5 24 6.6 103300 79
2004-11-24 08:03:46 51°16.846 2°52.539 3.5 24 6.6 103300 79
2004-11-24 08:03:52 51°16.867 2°52.523 3.3 23 6.6 103300 79
2004-11-24 08:03:56 51°16.88 2°52.512 3.2 25 6.6 103300 79
2004-11-24 08:04:02 51°16.9 2°52.496 3.1 22 6.6 103300 79
2004-11-24 08:04:14 51°16.94 2°52.464 2.9 23 6.6 103300 79
2004-11-24 08:04:19 51°16.956 2°52.451 2.9 19 6.6 103300 79
2004-11-24 08:04:22 51°16.966 2°52.443 3.1 20 6.6 103300 79
2004-11-24 08:04:39 51°17.022 2°52.401 3 27 6.6 103300 79
2004-11-24 08:04:44 51°17.039 2°52.388 3.7 24 6.6 103300 79
2004-11-24 08:04:49 51°17.055 2°52.375 3.5 28 6.6 103300 79
2004-11-24 08:04:52 51°17.066 2°52.368 3.5 22 6.6 103300 79
2004-11-24 08:04:59 51°17.089 2°52.349 3.8 14 6.6 103300 79
2004-11-24 08:05:04 51°17.106 2°52.336 3.3 31 6.6 103300 79
2004-11-24 08:05:09 51°17.122 2°52.323 3.8 30 6.6 103300 80
2004-11-24 08:05:23 51°17.17 2°52.289 3.4 29 6.6 103300 80
2004-11-24 08:05:28 51°17.187 2°52.278 3.2 31 6.6 103300 80
2004-11-24 08:05:33 51°17.205 2°52.266 3.6 28 6.6 103300 80
2004-11-24 08:05:36 51°17.215 2°52.26 3.9 33 6.6 103300 80
2004-11-24 08:05:43 51°17.24 2°52.244 2.2 31 6.6 103300 80
2004-11-24 08:05:47 51°17.254 2°52.235 3.2 29 6.6 103300 80
2004-11-24 08:05:53 51°17.274 2°52.222 3.2 28 6.6 103300 80
2004-11-24 08:05:56 51°17.285 2°52.215 2.8 32 6.6 103300 80
2004-11-24 08:06:03 51°17.309 2°52.199 3.5 35 6.6 103300 80
2004-11-24 08:06:08 51°17.326 2°52.188 3.6 33 6.6 103300 80
2004-11-24 08:06:24 51°17.382 2°52.16 3.5 41 6.6 103310 80
2004-11-24 08:06:34 51°17.418 2°52.145 3.7 46 6.6 103310 80
2004-11-24 08:06:52 51°17.483 2°52.128 3.7 44 6.6 103290 80
2004-11-24 08:06:56 51°17.498 2°52.125 4.1 45 6.6 103300 79
2004-11-24 08:07:01 51°17.516 2°52.122 3.8 47 6.6 103300 79
2004-11-24 08:07:04 51°17.527 2°52.12 3.5 49 6.6 103300 79
2004-11-24 08:07:09 51°17.545 2°52.117 3.8 48 6.6 103300 79
2004-11-24 08:07:15 51°17.567 2°52.113 3.7 44 6.6 103300 80
2004-11-24 08:07:19 51°17.582 2°52.11 3.5 47 6.6 103300 80
2004-11-24 08:07:26 51°17.607 2°52.108 4.1 44 6.6 103310 80
2004-11-24 08:07:30 51°17.622 2°52.108 4 49 6.6 103310 80
2004-11-24 08:07:36 51°17.643 2°52.108 5.1 50 6.6 103300 79
2004-11-24 08:07:40 51°17.658 2°52.11 5.6 37 6.6 103300 79
2004-11-24 08:07:46 51°17.679 2°52.113 5 46 6.6 103300 80
2004-11-24 08:07:52 51°17.701 2°52.117 5.1 51 6.6 103300 80
2004-11-24 08:07:56 51°17.715 2°52.119 5.8 44 6.6 103300 80
2004-11-24 08:08:00 51°17.73 2°52.122 5 44 6.6 103300 80
2004-11-24 08:08:06 51°17.751 2°52.126 5.5 55 6.6 103290 80
2004-11-24 08:08:12 51°17.773 2°52.13 5.2 48 6.6 103290 80
2004-11-24 08:08:16 51°17.788 2°52.133 5 49 6.6 103300 80
2004-11-24 08:08:20 51°17.802 2°52.135 5.2 50 6.6 103300 80
2004-11-24 08:08:26 51°17.824 2°52.139 5.2 56 6.6 103300 80
2004-11-24 08:08:31 51°17.842 2°52.143 5 56 6.6 103300 80
2004-11-24 08:08:36 51°17.86 2°52.146 5.1 54 6.6 103300 80
2004-11-24 08:08:39 51°17.871 2°52.148 5.2 51 6.6 103300 80
2004-11-24 08:08:58 51°17.94 2°52.16 5.8 50 6.6 103290 80
2004-11-24 08:09:03 51°17.958 2°52.164 5.6 49 6.6 103290 80
2004-11-24 08:09:08 51°17.976 2°52.167 5.1 47 6.6 103300 80
2004-11-24 08:09:12 51°17.991 2°52.169 6.3 47 6.6 103300 80
2004-11-24 08:09:18 51°18.013 2°52.173 5.5 48 6.6 103310 80
2004-11-24 08:09:24 51°18.035 2°52.177 5.6 42 6.6 103310 80
2004-11-24 08:09:28 51°18.049 2°52.179 5.5 44 6.6 103300 80
2004-11-24 08:09:42 51°18.1 2°52.193 6.1 42 6.6 103300 80
2004-11-24 08:09:46 51°18.114 2°52.198 5.4 53 6.6 103300 80
2004-11-24 08:09:52 51°18.136 2°52.206 5.6 50 6.6 103300 80
2004-11-24 08:09:56 51°18.15 2°52.211 5.5 45 6.6 103300 80
2004-11-24 08:10:01 51°18.168 2°52.219 6.2 46 6.6 103300 80
2004-11-24 08:10:06 51°18.186 2°52.226 6.4 44 6.6 103310 80
2004-11-24 08:10:12 51°18.207 2°52.235 5.7 52 6.6 103310 80
2004-11-24 08:10:17 51°18.225 2°52.243 5.7 50 6.6 103310 80
2004-11-24 08:10:20 51°18.235 2°52.248 6 48 6.6 103310 80
2004-11-24 08:10:26 51°18.257 2°52.257 5.7 48 6.6 103300 80
2004-11-24 08:10:32 51°18.278 2°52.268 5.9 42 6.6 103300 80
2004-11-24 08:10:37 51°18.295 2°52.277 6.3 50 6.6 103300 80
2004-11-24 08:10:42 51°18.312 2°52.286 6.2 49 6.6 103300 80
2004-11-24 08:10:47 51°18.329 2°52.296 6.1 44 6.6 103310 80
2004-11-24 08:10:49 51°18.336 2°52.3 6.2 50 6.6 103310 80
2004-11-24 08:10:57 51°18.363 2°52.317 6.1 42 6.6 103300 80
2004-11-24 08:11:02 51°18.381 2°52.327 5.9 45 6.6 103300 80
2004-11-24 08:11:06 51°18.394 2°52.335 5.5 49 6.6 103300 80
2004-11-24 08:11:10 51°18.408 2°52.343 6.9 50 6.6 103300 80
2004-11-24 08:11:17 51°18.432 2°52.358 6.7 49 6.6 103300 80
2004-11-24 08:11:22 51°18.448 2°52.368 6.3 53 6.6 103300 80
2004-11-24 08:11:26 51°18.462 2°52.379 5.9 51 6.6 103310 80
2004-11-24 08:11:32 51°18.481 2°52.394 6.6 44 6.6 103310 80
2004-11-24 08:11:36 51°18.494 2°52.405 7.1 49 6.6 103310 80
2004-11-24 08:11:39 51°18.504 2°52.414 6.7 49 6.6 103310 80
2004-11-24 08:11:54 51°18.551 2°52.459 6.9 51 6.6 103310 80
2004-11-24 08:11:58 51°18.563 2°52.472 6.8 52 6.5 103300 80
2004-11-24 08:12:04 51°18.581 2°52.492 7.9 53 6.5 103300 80
2004-11-24 08:12:38 51°18.658 2°52.644 9 40 6.5 103300 80
2004-11-24 08:12:42 51°18.665 2°52.665 10 46 6.5 103300 80
2004-11-24 08:12:48 51°18.673 2°52.697 9.6 35 6.6 103300 80
2004-11-24 08:12:53 51°18.68 2°52.724 10.3 44 6.6 103300 80
2004-11-24 08:12:58 51°18.686 2°52.751 9.7 43 6.6 103280 80
2004-11-24 08:13:04 51°18.693 2°52.785 9.6 43 6.6 103280 80
2004-11-24 08:13:08 51°18.698 2°52.807 9.7 38 6.6 103290 80
2004-11-24 08:13:22 51°18.714 2°52.884 10.5 40 6.6 103290 80
2004-11-24 08:13:26 51°18.719 2°52.907 10.5 44 6.6 103280 80
2004-11-24 08:13:32 51°18.726 2°52.94 10.3 43 6.6 103280 80
2004-11-24 08:13:37 51°18.733 2°52.967 10.3 44 6.5 103270 80
2004-11-24 08:13:40 51°18.736 2°52.983 9.8 39 6.5 103270 80
2004-11-24 08:13:44 51°18.741 2°53.005 10.2 44 6.6 103280 80
2004-11-24 08:13:51 51°18.75 2°53.044 10.1 44 6.6 103280 80
2004-11-24 08:13:57 51°18.758 2°53.077 9.7 47 6.5 103270 80
2004-11-24 08:14:02 51°18.764 2°53.104 10.2 40 6.5 103270 80
2004-11-24 08:14:06 51°18.769 2°53.126 10.1 42 6.5 103260 80
2004-11-24 08:14:11 51°18.775 2°53.153 10 44 6.5 103260 80
2004-11-24 08:14:17 51°18.783 2°53.186 9.8 44 6.5 103280 80
2004-11-24 08:14:22 51°18.79 2°53.213 10 45 6.5 103280 80
2004-11-24 08:14:26 51°18.795 2°53.235 9.8 44 6.5 103280 80
2004-11-24 08:14:32 51°18.803 2°53.267 10.3 45 6.5 103280 80
2004-11-24 08:14:36 51°18.808 2°53.289 9.5 43 6.5 103280 80
2004-11-24 08:14:42 51°18.816 2°53.322 9.6 43 6.5 103280 80
2004-11-24 08:15:46 51°18.902 2°53.671 9.4 45 6.5 103270 80
2004-11-24 08:15:50 51°18.907 2°53.693 10 41 6.5 103270 80
2004-11-24 08:15:54 51°18.913 2°53.714 10.1 44 6.5 103290 80
2004-11-24 08:16:04 51°18.927 2°53.769 9.9 48 6.4 103280 80
2004-11-24 08:16:11 51°18.936 2°53.807 9.6 44 6.4 103280 80
2004-11-24 08:16:16 51°18.943 2°53.835 9.5 47 6.5 103270 80
2004-11-24 08:16:21 51°18.95 2°53.862 9.8 46 6.5 103270 80
2004-11-24 08:16:26 51°18.957 2°53.889 10.6 44 6.4 103270 80
2004-11-24 08:16:30 51°18.962 2°53.911 10.1 44 6.4 103270 80
2004-11-24 08:16:36 51°18.97 2°53.944 9.4 43 6.4 103280 80
2004-11-24 08:16:38 51°18.973 2°53.955 10 45 6.4 103280 80
2004-11-24 08:16:44 51°18.98 2°53.988 10.4 46 6.4 103290 80
2004-11-24 08:16:50 51°18.987 2°54.022 10.2 42 6.4 103290 80
2004-11-24 08:16:56 51°18.996 2°54.055 10.4 50 6.4 103280 80
2004-11-24 08:16:59 51°18.999 2°54.072 9.6 49 6.4 103280 80
2004-11-24 08:17:05 51°19.008 2°54.105 10.1 48 6.4 103270 80
2004-11-24 08:17:09 51°19.013 2°54.127 10.2 44 6.4 103270 80
2004-11-24 08:17:16 51°19.022 2°54.165 10.4 45 6.4 103270 80
2004-11-24 08:17:20 51°19.027 2°54.188 9.8 44 6.4 103270 80
2004-11-24 08:17:25 51°19.033 2°54.216 10.2 49 6.4 103280 80
2004-11-24 08:17:32 51°19.042 2°54.255 9.5 46 6.4 103280 80
2004-11-24 08:17:36 51°19.046 2°54.277 10 46 6.4 103300 80
2004-11-24 08:17:40 51°19.052 2°54.3 10 43 6.4 103300 80
2004-11-24 08:17:45 51°19.058 2°54.327 10.4 44 6.4 103270 80
2004-11-24 08:17:52 51°19.067 2°54.366 9.7 46 6.4 103270 80
2004-11-24 08:17:55 51°19.071 2°54.383 10.6 47 6.4 103290 80
2004-11-24 08:18:01 51°19.079 2°54.416 10.4 48 6.4 103290 80
2004-11-24 08:18:04 51°19.083 2°54.433 10 47 6.4 103270 80
2004-11-24 08:18:10 51°19.09 2°54.466 10.5 45 6.4 103270 80
2004-11-24 08:18:16 51°19.099 2°54.499 9.5 46 6.4 103260 80
2004-11-24 08:18:19 51°19.103 2°54.516 10.3 45 6.4 103260 80
2004-11-24 08:18:26 51°19.112 2°54.555 11.1 48 6.4 103260 79
2004-11-24 08:18:30 51°19.117 2°54.577 10.5 44 6.4 103260 79
2004-11-24 08:18:36 51°19.125 2°54.61 10 43 6.4 103270 80
2004-11-24 08:18:41 51°19.131 2°54.638 9.5 43 6.4 103270 80
2004-11-24 08:18:46 51°19.137 2°54.666 10.2 44 6.4 103260 80
2004-11-24 08:18:51 51°19.144 2°54.694 10.1 49 6.4 103260 80
2004-11-24 08:18:56 51°19.151 2°54.722 10.1 39 6.4 103260 80
2004-11-24 08:19:01 51°19.157 2°54.749 10.5 44 6.4 103260 80
2004-11-24 08:19:04 51°19.161 2°54.766 10.3 48 6.4 103280 80
2004-11-24 08:19:10 51°19.169 2°54.799 10.4 51 6.4 103280 80
2004-11-24 08:19:16 51°19.176 2°54.832 10 42 6.4 103280 79
2004-11-24 08:19:21 51°19.183 2°54.86 10.5 47 6.4 103280 79
2004-11-24 08:19:26 51°19.189 2°54.887 9.4 43 6.4 103270 79
2004-11-24 08:19:32 51°19.197 2°54.92 10.4 43 6.4 103270 79
2004-11-24 08:19:36 51°19.203 2°54.942 10.1 44 6.4 103280 80
2004-11-24 08:19:39 51°19.206 2°54.959 10.2 44 6.4 103280 80
2004-11-24 08:19:44 51°19.213 2°54.987 10.1 43 6.4 103280 80
2004-11-24 08:19:52 51°19.223 2°55.031 10.3 45 6.4 103280 80
2004-11-24 08:19:56 51°19.228 2°55.053 9.3 49 6.4 103270 80
2004-11-24 08:20:00 51°19.234 2°55.075 9 42 6.4 103270 80
2004-11-24 08:20:04 51°19.239 2°55.097 9.5 44 6.4 103280 80
2004-11-24 08:20:12 51°19.25 2°55.141 9.7 47 6.4 103280 80
2004-11-24 08:20:16 51°19.256 2°55.163 9.7 48 6.4 103280 80
2004-11-24 08:20:20 51°19.261 2°55.185 9.9 49 6.4 103280 80
2004-11-24 08:20:42 51°19.292 2°55.305 10.3 51 6.4 103280 80
2004-11-24 08:20:46 51°19.297 2°55.327 9 46 6.5 103280 79
2004-11-24 08:21:04 51°19.321 2°55.426 10.4 49 6.5 103280 79
2004-11-24 08:21:08 51°19.327 2°55.448 9.4 50 6.4 103290 79
2004-11-24 08:21:13 51°19.334 2°55.476 9.6 43 6.4 103290 79
2004-11-24 08:21:17 51°19.339 2°55.498 9.7 41 6.4 103290 79
2004-11-24 08:21:24 51°19.349 2°55.536 10.5 49 6.4 103290 79
2004-11-24 08:21:28 51°19.354 2°55.558 9.4 48 6.4 103290 79
2004-11-24 08:21:33 51°19.362 2°55.585 10.1 45 6.4 103290 79
2004-11-24 08:21:38 51°19.368 2°55.613 10 41 6.4 103280 79
2004-11-24 08:21:44 51°19.377 2°55.646 10.5 47 6.4 103280 79
2004-11-24 08:21:48 51°19.382 2°55.668 10.1 48 6.4 103280 79
2004-11-24 08:22:08 51°19.409 2°55.778 10.1 47 6.4 103280 79
2004-11-24 08:22:16 51°19.421 2°55.823 9.9 49 6.4 103280 79
2004-11-24 08:22:21 51°19.426 2°55.851 8.4 39 6.4 103280 79
2004-11-24 08:22:24 51°19.431 2°55.868 9.8 45 6.4 103280 79
2004-11-24 08:23:03 51°19.484 2°56.086 9.2 40 -999 -999 -999
2004-11-24 08:23:08 51°19.491 2°56.114 9.6 44 6.4 103290 79
2004-11-24 08:23:12 51°19.497 2°56.136 9.9 47 6.4 103290 79
2004-11-24 08:23:16 51°19.502 2°56.159 9 44 6.4 103290 80
2004-11-24 08:23:21 51°19.509 2°56.186 9.9 40 6.4 103290 80
2004-11-24 08:23:28 51°19.519 2°56.226 10.4 43 6.4 103280 79
2004-11-24 08:23:33 51°19.526 2°56.253 9.6 46 6.4 103280 79
2004-11-24 08:23:38 51°19.533 2°56.282 9.5 39 6.4 103300 79
2004-11-24 08:23:43 51°19.54 2°56.31 9.1 41 6.4 103300 79
2004-11-24 08:23:48 51°19.547 2°56.338 9.6 47 6.4 103290 79
2004-11-24 08:23:53 51°19.554 2°56.365 9.5 41 6.4 103290 79
2004-11-24 08:23:58 51°19.56 2°56.394 9.5 41 6.4 103290 79
2004-11-24 08:24:03 51°19.567 2°56.422 9.5 40 6.4 103290 79
2004-11-24 08:24:08 51°19.574 2°56.45 9.5 40 6.4 103280 79
2004-11-24 08:24:12 51°19.579 2°56.473 9.4 44 6.4 103280 79
2004-11-24 08:24:16 51°19.585 2°56.495 9 42 6.4 103290 80
2004-11-24 08:24:22 51°19.593 2°56.529 10.3 40 6.4 103290 80
2004-11-24 08:24:42 51°19.621 2°56.641 9.9 42 6.4 103280 80
2004-11-24 08:25:10 51°19.659 2°56.798 9.7 47 6.3 103290 80
2004-11-24 08:25:16 51°19.667 2°56.832 9 37 6.3 103290 80
2004-11-24 08:25:20 51°19.673 2°56.854 9.7 44 6.3 103300 79
2004-11-24 08:25:28 51°19.683 2°56.899 8.8 42 6.3 103300 79
2004-11-24 08:25:36 51°19.694 2°56.944 9.5 41 6.3 103290 80
2004-11-24 08:25:41 51°19.701 2°56.972 8.9 40 6.3 103290 80
2004-11-24 08:25:43 51°19.704 2°56.983 9.1 39 6.3 103300 80
2004-11-24 08:25:50 51°19.714 2°57.022 9 38 6.3 103300 80
2004-11-24 08:25:56 51°19.722 2°57.056 9.1 39 6.3 103300 80
2004-11-24 08:26:00 51°19.728 2°57.078 9.5 38 6.3 103300 80
2004-11-24 08:26:06 51°19.736 2°57.112 9.6 39 6.3 103300 80
2004-11-24 08:26:11 51°19.743 2°57.14 9.7 40 6.3 103300 80
2004-11-24 08:26:16 51°19.75 2°57.168 10.2 41 6.3 103290 80
2004-11-24 08:26:21 51°19.757 2°57.195 9.4 42 6.3 103290 80
2004-11-24 08:26:24 51°19.761 2°57.212 9.7 38 6.3 103290 80
2004-11-24 08:26:30 51°19.769 2°57.246 9.5 42 6.3 103290 80
2004-11-24 08:26:42 51°19.785 2°57.313 9.3 42 6.3 103290 80
2004-11-24 08:26:47 51°19.792 2°57.341 9.4 40 6.3 103300 80
2004-11-24 08:26:49 51°19.794 2°57.352 9.5 36 6.3 103300 80
2004-11-24 08:26:59 51°19.808 2°57.408 10 36 6.3 103290 80
2004-11-24 08:27:04 51°19.815 2°57.435 9.9 40 6.3 103290 80
2004-11-24 08:27:08 51°19.82 2°57.458 10.1 39 6.3 103290 80
2004-11-24 08:27:14 51°19.828 2°57.491 9.5 39 6.3 103290 80
2004-11-24 08:27:18 51°19.833 2°57.514 8.9 40 6.3 103290 80
2004-11-24 08:27:24 51°19.841 2°57.547 9.8 39 6.3 103290 80
2004-11-24 08:27:29 51°19.848 2°57.575 9.5 37 6.3 103290 80
2004-11-24 08:27:42 51°19.865 2°57.648 9.3 38 6.3 103290 80
2004-11-24 08:27:46 51°19.871 2°57.671 10 40 6.3 103280 80
2004-11-24 08:27:52 51°19.879 2°57.704 9.5 37 6.3 103280 80
2004-11-24 08:27:56 51°19.884 2°57.726 9.3 42 6.3 103290 80
2004-11-24 08:28:01 51°19.891 2°57.754 9.3 40 6.3 103290 80
2004-11-24 08:28:06 51°19.898 2°57.782 9.7 40 6.3 103290 80
2004-11-24 08:28:12 51°19.906 2°57.816 9.5 41 6.3 103290 80
2004-11-24 08:28:16 51°19.911 2°57.838 9.4 36 6.3 103290 80
2004-11-24 08:28:21 51°19.918 2°57.866 9.6 37 6.3 103290 80
2004-11-24 08:28:24 51°19.922 2°57.882 9.8 41 6.3 103290 79
2004-11-24 08:28:32 51°19.932 2°57.927 9.5 41 6.3 103290 79
2004-11-24 08:28:36 51°19.938 2°57.949 10.1 47 6.3 103290 80
2004-11-24 08:28:42 51°19.946 2°57.983 9 41 6.3 103290 80
2004-11-24 08:28:47 51°19.953 2°58.01 9.8 39 6.3 103290 80
2004-11-24 08:28:49 51°19.956 2°58.022 9.8 40 6.3 103290 80
2004-11-24 08:28:57 51°19.967 2°58.066 9.8 38 6.3 103290 80
2004-11-24 08:29:00 51°19.971 2°58.083 9.2 37 6.3 103290 80
2004-11-24 08:29:05 51°19.978 2°58.11 10.1 42 6.3 103290 80
2004-11-24 08:29:12 51°19.987 2°58.149 9.4 40 6.3 103290 80
2004-11-24 08:29:16 51°19.993 2°58.171 9.6 42 6.3 103290 80
2004-11-24 08:29:22 51°20.001 2°58.205 9.5 38 6.3 103290 80
2004-11-24 08:29:42 51°20.027 2°58.317 9.4 37 6.3 103290 80
2004-11-24 08:30:10 51°20.065 2°58.473 9.9 37 6.3 103300 80
2004-11-24 08:30:16 51°20.073 2°58.506 9.7 40 6.3 103300 80
2004-11-24 08:30:20 51°20.079 2°58.529 9.2 35 6.3 103300 80
2004-11-24 08:30:28 51°20.089 2°58.573 9.6 39 6.3 103300 80
2004-11-24 08:30:36 51°20.1 2°58.618 9.5 34 6.3 103290 80
2004-11-24 08:30:41 51°20.108 2°58.645 9.7 39 6.3 103290 80
2004-11-24 08:30:43 51°20.11 2°58.657 9.9 39 6.3 103300 80
2004-11-24 08:30:50 51°20.119 2°58.696 9.9 41 6.3 103300 80
2004-11-24 08:30:56 51°20.127 2°58.729 9.6 39 6.3 103300 80
2004-11-24 08:31:00 51°20.133 2°58.751 9.6 39 6.3 103300 80
2004-11-24 08:31:06 51°20.14 2°58.785 9 39 6.3 103290 80
2004-11-24 08:31:11 51°20.147 2°58.813 9.4 37 6.3 103290 80
2004-11-24 08:31:16 51°20.153 2°58.841 9 36 6.3 103290 80
2004-11-24 08:31:21 51°20.16 2°58.868 9.4 40 6.3 103290 80
2004-11-24 08:31:24 51°20.164 2°58.885 9.4 35 6.2 103290 80
2004-11-24 08:31:30 51°20.173 2°58.918 9.4 36 6.2 103290 80
2004-11-24 08:31:42 51°20.189 2°58.984 9.1 43 6.2 103290 80
2004-11-24 08:31:44 51°20.192 2°58.996 9.6 34 6.3 103290 80
2004-11-24 08:31:55 51°20.207 2°59.056 9.7 43 6.3 103290 80
2004-11-24 08:32:00 51°20.214 2°59.084 9.8 36 6.2 103290 80
2004-11-24 08:32:04 51°20.219 2°59.106 10.3 43 6.2 103290 80
2004-11-24 08:32:08 51°20.224 2°59.128 8.8 37 6.3 103300 80
2004-11-24 08:32:14 51°20.232 2°59.162 10.2 42 6.3 103300 80
2004-11-24 08:32:20 51°20.24 2°59.195 9.6 39 6.2 103290 80
2004-11-24 08:32:22 51°20.243 2°59.207 9.5 37 6.2 103290 80
2004-11-24 08:32:34 51°20.258 2°59.274 9.2 43 6.2 103290 80
2004-11-24 08:32:40 51°20.266 2°59.307 9.3 40 6.2 103290 80
2004-11-24 08:32:44 51°20.271 2°59.33 9.4 33 6.2 103290 80
2004-11-24 08:32:48 51°20.277 2°59.352 10.1 36 6.2 103290 80
2004-11-24 08:32:55 51°20.287 2°59.392 9.7 40 6.2 103290 80
2004-11-24 08:33:00 51°20.294 2°59.421 9.1 40 6.2 103290 80
2004-11-24 08:33:04 51°20.3 2°59.443 9.8 41 6.2 103290 80
2004-11-24 08:33:09 51°20.306 2°59.472 10.1 41 6.2 103290 80
2004-11-24 08:33:34 51°20.34 2°59.615 9.2 39 6.2 103290 80
2004-11-24 08:33:38 51°20.346 2°59.638 9.9 41 6.2 103290 80
2004-11-24 08:33:44 51°20.354 2°59.672 9 42 6.2 103290 80
2004-11-24 08:33:49 51°20.36 2°59.7 8.7 41 6.2 103290 80
2004-11-24 08:33:54 51°20.367 2°59.729 9.2 34 6.2 103290 80
2004-11-24 08:33:58 51°20.373 2°59.751 9.1 38 6.2 103290 80
2004-11-24 08:34:04 51°20.381 2°59.786 9.5 37 6.2 103290 80
2004-11-24 08:34:08 51°20.387 2°59.809 8.9 44 6.2 103290 80
2004-11-24 08:34:14 51°20.395 2°59.843 9.4 37 6.2 103290 80
2004-11-24 08:34:19 51°20.402 2°59.872 10 37 6.2 103300 80
2004-11-24 08:34:22 51°20.407 2°59.889 9.2 38 6.2 103300 80
2004-11-24 08:34:29 51°20.416 2°59.929 9.2 34 6.2 103300 80
2004-11-24 08:34:34 51°20.423 2°59.957 9 38 6.2 103300 80
2004-11-24 08:34:39 51°20.43 2°59.986 9.1 38 6.2 103290 80
2004-11-24 08:34:44 51°20.437 3°0.015 9.6 40 6.2 103290 80
2004-11-24 08:34:48 51°20.443 3°0.037 9.5 36 6.2 103290 80
2004-11-24 08:34:54 51°20.45 3°0.072 9.3 35 6.2 103290 80
2004-11-24 08:34:58 51°20.456 3°0.095 9.6 37 6.2 103290 80
2004-11-24 08:35:03 51°20.463 3°0.123 9.6 40 6.2 103290 80
2004-11-24 08:35:09 51°20.471 3°0.158 9 34 6.2 103290 80
2004-11-24 08:35:12 51°20.475 3°0.175 8.9 41 6.2 103290 80
2004-11-24 08:35:26 51°20.494 3°0.255 9.5 40 6.2 103290 80
2004-11-24 08:35:32 51°20.503 3°0.29 9.3 43 6.2 103290 80
2004-11-24 08:35:36 51°20.508 3°0.313 8.9 36 6.1 103300 80
2004-11-24 08:35:41 51°20.515 3°0.341 9.5 37 6.1 103300 80
2004-11-24 08:35:46 51°20.522 3°0.37 8.9 30 6.2 103300 80
2004-11-24 08:35:48 51°20.525 3°0.381 9.3 37 6.2 103300 80
2004-11-24 08:35:56 51°20.535 3°0.428 8.8 35 6.2 103300 80
2004-11-24 08:36:01 51°20.542 3°0.456 9 36 6.2 103300 80
2004-11-24 08:36:06 51°20.549 3°0.485 9 34 6.2 103300 80
2004-11-24 08:36:12 51°20.557 3°0.519 9 33 6.2 103300 80
2004-11-24 08:36:16 51°20.563 3°0.542 9.4 35 6.2 103290 80
2004-11-24 08:36:18 51°20.566 3°0.554 9.6 32 6.2 103290 80
2004-11-24 08:36:26 51°20.577 3°0.6 9.3 37 6.2 103300 81
2004-11-24 08:36:30 51°20.582 3°0.623 9 31 6.2 103300 81
2004-11-24 08:36:36 51°20.59 3°0.657 9.6 32 6.2 103290 81
2004-11-24 08:36:49 51°20.608 3°0.732 9.8 31 6.2 103290 81
2004-11-24 08:36:55 51°20.617 3°0.767 9.5 32 6.2 103290 81
2004-11-24 08:37:00 51°20.624 3°0.795 10.1 35 6.2 103290 80
2004-11-24 08:37:05 51°20.631 3°0.823 9.2 34 6.2 103290 80
2004-11-24 08:37:10 51°20.638 3°0.852 9.7 36 6.2 103300 81
2004-11-24 08:37:16 51°20.646 3°0.886 9.6 36 6.2 103300 81
2004-11-24 08:37:20 51°20.651 3°0.91 9.3 33 6.2 103290 81
2004-11-24 08:37:24 51°20.657 3°0.933 9.4 31 6.2 103290 81
2004-11-24 08:37:30 51°20.665 3°0.968 9.2 33 6.2 103290 81
2004-11-24 08:37:35 51°20.672 3°0.997 9.7 37 6.2 103290 81
2004-11-24 08:37:40 51°20.678 3°1.026 9.4 36 6.1 103290 80
2004-11-24 08:37:44 51°20.684 3°1.049 9.5 37 6.1 103290 80
2004-11-24 08:37:50 51°20.692 3°1.083 9.2 35 6.1 103300 81
2004-11-24 08:37:55 51°20.699 3°1.112 8.8 35 6.1 103300 81
2004-11-24 08:38:00 51°20.706 3°1.141 9.6 39 6.1 103300 81
2004-11-24 08:38:05 51°20.712 3°1.17 9.6 32 6.1 103300 81
2004-11-24 08:38:09 51°20.719 3°1.193 9.9 37 6.1 103300 80
2004-11-24 08:38:14 51°20.725 3°1.222 9.7 38 6.1 103300 80
2004-11-24 08:38:20 51°20.733 3°1.257 9.1 37 6.1 103300 81
2004-11-24 08:38:24 51°20.739 3°1.28 9.7 39 6.1 103300 81
2004-11-24 08:38:28 51°20.745 3°1.303 9.4 40 6.1 103300 81
2004-11-24 08:38:34 51°20.753 3°1.337 9.5 33 6.1 103300 81
2004-11-24 08:38:38 51°20.759 3°1.36 9 36 6.1 103290 81
2004-11-24 08:38:44 51°20.767 3°1.395 9.1 37 6.1 103290 81
2004-11-24 08:38:50 51°20.775 3°1.43 9.4 41 6.1 103290 81
2004-11-24 08:38:54 51°20.781 3°1.453 10 35 6.1 103290 81
2004-11-24 08:38:58 51°20.787 3°1.476 9.9 38 6.1 103290 81
2004-11-24 08:39:02 51°20.792 3°1.499 9.4 38 6.1 103290 81
2004-11-24 08:39:10 51°20.803 3°1.545 9.5 36 6.1 103290 81
2004-11-24 08:39:14 51°20.809 3°1.568 9.6 38 6.1 103290 81
2004-11-24 08:39:24 51°20.823 3°1.626 10 39 6.1 103270 81
2004-11-24 08:39:32 51°20.834 3°1.673 9.9 41 6.1 103270 81
2004-11-24 08:39:36 51°20.84 3°1.696 9.6 34 6.1 103280 80
2004-11-24 08:39:39 51°20.844 3°1.713 10.6 39 6.1 103280 80
2004-11-24 08:39:46 51°20.854 3°1.754 10.5 42 6.1 103280 81
2004-11-24 08:39:50 51°20.859 3°1.777 9.6 37 6.1 103280 81
2004-11-24 08:39:56 51°20.868 3°1.812 10.4 41 6 103270 80
2004-11-24 08:40:01 51°20.875 3°1.841 9.8 39 6 103270 80
2004-11-24 08:40:22 51°20.905 3°1.963 10.3 40 6 103280 80
2004-11-24 08:40:28 51°20.913 3°1.998 9.5 45 6 103280 80
2004-11-24 08:40:32 51°20.918 3°2.021 9.8 36 6 103280 80
2004-11-24 08:40:38 51°20.927 3°2.056 10.3 40 6 103290 80
2004-11-24 08:40:44 51°20.935 3°2.091 9.8 36 6 103290 80
2004-11-24 08:40:48 51°20.94 3°2.115 10.1 41 6 103280 80
2004-11-24 08:40:52 51°20.946 3°2.138 10.5 34 6 103280 80
2004-11-24 08:40:58 51°20.954 3°2.173 9.9 38 6 103290 80
2004-11-24 08:41:04 51°20.963 3°2.208 9.6 34 6 103290 80
2004-11-24 08:41:08 51°20.968 3°2.232 9.9 36 6 103270 80
2004-11-24 08:41:13 51°20.975 3°2.261 9.6 37 6 103270 80
2004-11-24 08:41:18 51°20.982 3°2.29 9.5 35 6 103280 80
2004-11-24 08:41:22 51°20.988 3°2.313 9.7 36 6 103280 80
2004-11-24 08:41:28 51°20.996 3°2.349 9.5 39 6 103280 80
2004-11-24 08:41:33 51°21.003 3°2.378 9 38 6 103280 80
2004-11-24 08:41:44 51°21.019 3°2.442 10 35 6 103280 80
2004-11-24 08:41:48 51°21.024 3°2.466 10 37 6 103280 80
2004-11-24 08:41:56 51°21.036 3°2.512 9.7 42 6 103280 80
2004-11-24 08:42:00 51°21.041 3°2.535 8.8 34 6 103280 80
2004-11-24 08:42:23 51°21.075 3°2.669 9.8 38 6 103280 80
2004-11-24 08:42:28 51°21.082 3°2.699 9.3 35 6 103280 80
2004-11-24 08:42:32 51°21.088 3°2.722 10 40 6 103280 80
2004-11-24 08:42:36 51°21.093 3°2.745 9.9 38 6 103290 80
2004-11-24 08:42:40 51°21.099 3°2.769 9.8 41 6 103290 80
2004-11-24 08:42:48 51°21.11 3°2.816 9.2 41 6 103280 80
2004-11-24 08:42:52 51°21.116 3°2.839 10 39 6 103280 80
2004-11-24 08:42:58 51°21.125 3°2.874 9.8 40 6 103280 80
2004-11-24 08:43:02 51°21.13 3°2.898 9.2 36 6 103280 80
2004-11-24 08:43:08 51°21.139 3°2.932 10.1 42 5.9 103280 80
2004-11-24 08:43:11 51°21.143 3°2.95 10 41 5.9 103280 80
2004-11-24 08:43:17 51°21.152 3°2.985 9.7 40 5.9 103280 80
2004-11-24 08:43:23 51°21.161 3°3.02 9.1 38 5.9 103280 80
2004-11-24 08:43:28 51°21.167 3°3.05 9.7 41 5.9 103280 80
2004-11-24 08:43:34 51°21.176 3°3.085 9.8 38 5.9 103280 80
2004-11-24 08:43:38 51°21.182 3°3.108 8.7 41 5.9 103290 80
2004-11-24 08:43:42 51°21.187 3°3.131 9.9 38 5.9 103290 80
2004-11-24 08:43:47 51°21.195 3°3.161 8.9 41 5.9 103290 80
2004-11-24 08:43:52 51°21.202 3°3.191 9.4 38 5.9 103290 80
2004-11-24 08:43:57 51°21.209 3°3.22 9.2 38 5.9 103290 80
2004-11-24 08:44:04 51°21.218 3°3.261 9.5 40 5.9 103290 80
2004-11-24 08:44:08 51°21.224 3°3.284 8.6 40 5.9 103280 80
2004-11-24 08:44:12 51°21.229 3°3.308 10.5 41 5.9 103280 80
2004-11-24 08:44:18 51°21.238 3°3.343 9.6 45 5.9 103280 80
2004-11-24 08:44:23 51°21.244 3°3.373 10 42 5.9 103280 80
2004-11-24 08:44:28 51°21.252 3°3.402 8.8 37 5.9 103290 80
2004-11-24 08:44:32 51°21.257 3°3.426 9.1 39 5.9 103290 80
2004-11-24 08:44:38 51°21.266 3°3.461 9.3 41 5.9 103280 80
2004-11-24 08:44:43 51°21.273 3°3.49 9.2 36 5.9 103280 80
2004-11-24 08:44:46 51°21.277 3°3.507 9 41 5.9 103280 80
2004-11-24 08:45:04 51°21.303 3°3.613 9.4 41 5.9 103280 80
2004-11-24 08:45:08 51°21.309 3°3.637 9.3 42 5.9 103280 80
2004-11-24 08:45:12 51°21.314 3°3.66 9.3 39 5.9 103280 80
2004-11-24 08:45:16 51°21.32 3°3.684 9.5 38 5.9 103290 80
2004-11-24 08:45:20 51°21.326 3°3.707 9 40 5.9 103290 80
2004-11-24 08:45:28 51°21.337 3°3.754 8.8 40 5.9 103290 80
2004-11-24 08:45:32 51°21.344 3°3.777 9.5 39 5.9 103290 80
2004-11-24 08:45:38 51°21.352 3°3.812 9.6 40 5.9 103280 80
2004-11-24 08:45:42 51°21.358 3°3.835 9.7 39 5.9 103280 80
2004-11-24 08:45:48 51°21.366 3°3.87 8.4 41 5.9 103290 80
2004-11-24 08:45:51 51°21.371 3°3.887 9.7 41 5.9 103290 80
2004-11-24 08:45:58 51°21.381 3°3.928 8.7 35 5.9 103290 80
2004-11-24 08:46:02 51°21.387 3°3.951 9.4 35 5.9 103290 80
2004-11-24 08:46:08 51°21.395 3°3.986 9 36 5.9 103280 80
2004-11-24 08:46:12 51°21.401 3°4.01 9.5 36 5.9 103280 80
2004-11-24 08:46:18 51°21.41 3°4.044 9.8 42 5.9 103290 80
2004-11-24 08:46:22 51°21.415 3°4.068 9.2 43 5.9 103290 80
2004-11-24 08:46:28 51°21.425 3°4.102 9.2 40 5.9 103290 80
2004-11-24 08:46:33 51°21.431 3°4.131 9.2 39 5.9 103290 80
2004-11-24 08:46:38 51°21.439 3°4.16 9.6 41 5.9 103280 80
2004-11-24 08:46:43 51°21.445 3°4.19 8.7 38 5.9 103280 80
2004-11-24 08:46:45 51°21.449 3°4.201 9.4 39 5.9 103280 80
2004-11-24 08:46:58 51°21.466 3°4.277 10 37 5.9 103290 80
2004-11-24 08:47:02 51°21.471 3°4.301 8.6 38 5.9 103290 80
2004-11-24 08:47:06 51°21.477 3°4.324 9.5 43 5.9 103280 80
2004-11-24 08:47:13 51°21.487 3°4.365 9.1 44 5.9 103280 80
2004-11-24 08:47:17 51°21.492 3°4.389 8.9 39 5.9 103290 80
2004-11-24 08:47:22 51°21.5 3°4.418 9.5 39 5.9 103290 80
2004-11-24 08:47:28 51°21.508 3°4.453 9.4 36 5.9 103280 80
2004-11-24 08:47:32 51°21.515 3°4.476 9.6 44 5.9 103280 80
2004-11-24 08:47:37 51°21.521 3°4.505 8.5 35 5.9 103290 80
2004-11-24 08:47:43 51°21.53 3°4.541 9 37 5.9 103290 80
2004-11-24 08:47:48 51°21.537 3°4.57 9.4 40 5.9 103290 80
2004-11-24 08:47:53 51°21.544 3°4.599 9.3 40 5.9 103290 80
2004-11-24 08:47:58 51°21.551 3°4.628 9.7 36 5.9 103300 80
2004-11-24 08:48:04 51°21.559 3°4.663 9.3 37 5.9 103300 80
2004-11-24 08:48:08 51°21.565 3°4.687 9.2 36 5.9 103270 80
2004-11-24 08:48:12 51°21.571 3°4.711 8.7 37 5.9 103270 80
2004-11-24 08:48:18 51°21.579 3°4.746 9.2 38 5.9 103280 80
2004-11-24 08:48:23 51°21.586 3°4.775 8.1 39 5.9 103280 80
2004-11-24 08:48:28 51°21.594 3°4.805 8.7 36 5.9 103280 80
2004-11-24 08:48:34 51°21.603 3°4.84 9 37 5.9 103280 80
2004-11-24 08:48:38 51°21.608 3°4.863 8.8 38 5.9 103280 80
2004-11-24 08:48:42 51°21.614 3°4.887 8.5 38 5.9 103280 80
2004-11-24 08:48:48 51°21.623 3°4.922 8.5 39 5.9 103290 80
2004-11-24 08:48:53 51°21.63 3°4.951 8.5 36 5.9 103290 80
2004-11-24 08:48:58 51°21.637 3°4.98 9 36 6 103280 80
2004-11-24 08:49:02 51°21.643 3°5.004 9.3 36 6 103280 80
2004-11-24 08:49:08 51°21.651 3°5.039 9 39 6 103290 80
2004-11-24 08:49:13 51°21.657 3°5.069 9 40 6 103290 80
2004-11-24 08:49:18 51°21.664 3°5.099 9.3 36 6 103280 80
2004-11-24 08:49:23 51°21.669 3°5.13 8.9 33 6 103280 80
2004-11-24 08:49:26 51°21.673 3°5.147 9.1 37 6 103300 80
2004-11-24 08:49:46 51°21.696 3°5.268 8.8 41 6 103280 80
2004-11-24 08:49:51 51°21.702 3°5.298 9.8 36 6 103280 80
2004-11-24 08:49:56 51°21.708 3°5.328 8.9 31 6 103290 80
2004-11-24 08:50:00 51°21.713 3°5.352 9.3 39 6 103290 80
2004-11-24 08:50:06 51°21.72 3°5.389 8.8 32 6 103290 80
2004-11-24 08:50:12 51°21.727 3°5.425 8.4 33 6 103290 80
2004-11-24 08:50:16 51°21.731 3°5.448 9.4 35 6 103300 80
2004-11-24 08:50:20 51°21.736 3°5.472 9.8 38 6 103300 80
2004-11-24 08:50:26 51°21.743 3°5.509 8.9 36 6 103280 80
2004-11-24 08:50:42 51°21.761 3°5.605 9.5 37 6 103280 80
2004-11-24 08:50:48 51°21.769 3°5.641 9.2 34 6 103290 79
2004-11-24 08:51:02 51°21.785 3°5.726 8.9 39 6 103290 79
2004-11-24 08:51:05 51°21.788 3°5.744 8.7 36 6.1 103280 79
2004-11-24 08:51:12 51°21.797 3°5.787 8.8 36 6.1 103280 79
2004-11-24 08:51:15 51°21.8 3°5.805 9.4 34 6 103290 79
2004-11-24 08:51:22 51°21.808 3°5.847 9.3 39 6 103290 79
2004-11-24 08:51:26 51°21.812 3°5.872 9.4 36 6.1 103280 79
2004-11-24 08:52:06 51°21.858 3°6.115 9.4 34 6.2 103290 80
2004-11-24 08:52:09 51°21.861 3°6.134 9 30 6.2 103290 80
2004-11-24 08:52:16 51°21.869 3°6.177 9.3 31 6.2 103280 80
2004-11-24 08:52:20 51°21.873 3°6.202 9.6 32 6.2 103280 80
2004-11-24 08:52:26 51°21.879 3°6.239 9.5 30 6.2 103280 79
2004-11-24 08:52:32 51°21.885 3°6.275 9.5 28 6.2 103280 79
2004-11-24 08:52:36 51°21.889 3°6.3 9.1 28 6.2 103280 79
2004-11-24 08:52:39 51°21.892 3°6.319 9.5 28 6.2 103280 79
2004-11-24 08:52:46 51°21.9 3°6.362 9.4 32 6.2 103280 79
2004-11-24 08:52:50 51°21.904 3°6.386 9.5 38 6.2 103280 79
2004-11-24 08:52:56 51°21.912 3°6.422 9.1 34 6.2 103310 79
2004-11-24 08:53:01 51°21.92 3°6.451 9.4 35 6.2 103310 79
2004-11-24 08:53:06 51°21.929 3°6.48 8.9 32 6.2 103280 79
2004-11-24 08:53:12 51°21.939 3°6.514 9.1 34 6.2 103280 79
2004-11-24 08:53:14 51°21.943 3°6.525 8.9 35 6.2 103280 79
2004-11-24 08:53:19 51°21.952 3°6.553 8.4 37 6.2 103280 79
2004-11-24 08:53:26 51°21.965 3°6.592 8.6 31 6.2 103290 79
2004-11-24 08:53:30 51°21.974 3°6.614 9.2 38 6.2 103290 79
2004-11-24 08:53:36 51°21.985 3°6.647 8.8 36 6.2 103290 79
2004-11-24 08:53:38 51°21.99 3°6.658 9.1 34 6.2 103290 79
2004-11-24 08:53:46 51°22.005 3°6.702 9 37 6.2 103290 79
2004-11-24 08:53:52 51°22.017 3°6.736 8.9 41 6.2 103290 79
2004-11-24 08:53:56 51°22.025 3°6.758 9 36 6.1 103290 78
2004-11-24 08:53:59 51°22.03 3°6.775 8.5 30 6.1 103290 78
2004-11-24 08:54:06 51°22.044 3°6.814 8.8 35 6.1 103290 78
2004-11-24 08:54:10 51°22.051 3°6.836 9.3 37 6.1 103290 78
2004-11-24 08:54:16 51°22.062 3°6.871 9.4 38 6.1 103290 78
2004-11-24 08:54:21 51°22.069 3°6.9 9.4 37 6.1 103290 78
2004-11-24 08:54:26 51°22.078 3°6.929 9.3 38 6.1 103290 78
2004-11-24 08:54:28 51°22.08 3°6.941 8.9 33 6.1 103290 78
2004-11-24 08:54:36 51°22.091 3°6.989 9.6 35 6.1 103290 79
2004-11-24 08:54:38 51°22.094 3°7.001 9.3 32 6.1 103290 79
2004-11-24 08:54:46 51°22.103 3°7.05 9.4 33 6.1 103280 78
2004-11-24 08:54:55 51°22.113 3°7.105 9.6 26 6 103290 78
2004-11-24 08:55:03 51°22.121 3°7.155 9.6 24 6 103290 78
2004-11-24 08:55:08 51°22.125 3°7.186 9.2 21 6 103290 79
2004-11-24 08:55:14 51°22.13 3°7.224 10.2 25 6 103290 79
2004-11-24 08:55:18 51°22.134 3°7.249 9.7 26 6 103300 79
2004-11-24 08:55:24 51°22.137 3°7.287 9.9 24 6 103300 79
2004-11-24 08:55:28 51°22.141 3°7.312 9.5 32 6.1 103290 79
2004-11-24 08:55:32 51°22.143 3°7.338 9.9 24 6.1 103290 79
2004-11-24 08:55:38 51°22.147 3°7.376 10.2 27 6.1 103290 79
2004-11-24 08:55:42 51°22.15 3°7.401 9.2 26 6.1 103290 79
2004-11-24 08:55:48 51°22.154 3°7.439 10 27 6.1 103280 79
2004-11-24 08:55:53 51°22.158 3°7.471 9.5 31 6.1 103280 79
2004-11-24 08:56:04 51°22.165 3°7.54 9.1 25 6 103290 79
2004-11-24 08:56:12 51°22.171 3°7.591 9.9 28 6 103290 79
2004-11-24 08:56:16 51°22.173 3°7.616 9 28 6 103290 79
2004-11-24 08:56:19 51°22.175 3°7.636 9.4 23 6 103290 79
2004-11-24 08:56:26 51°22.18 3°7.68 9.7 25 6 103300 79
2004-11-24 08:56:32 51°22.184 3°7.718 9.4 26 6 103300 79
2004-11-24 08:56:36 51°22.187 3°7.744 9.7 25 6 103290 79
2004-11-24 08:56:40 51°22.19 3°7.769 9 23 6 103290 79
2004-11-24 08:56:46 51°22.194 3°7.807 9.6 24 6 103280 79
2004-11-24 08:56:48 51°22.195 3°7.82 9.1 29 6 103280 79
2004-11-24 08:56:56 51°22.201 3°7.871 9.5 28 5.9 103290 79
2004-11-24 08:57:00 51°22.204 3°7.896 9 23 5.9 103290 79
2004-11-24 08:57:05 51°22.208 3°7.928 9.4 25 5.9 103290 79
2004-11-24 08:57:11 51°22.212 3°7.966 9.2 26 5.9 103290 79
2004-11-24 08:57:16 51°22.217 3°7.997 9.4 29 5.9 103300 79
2004-11-24 08:57:20 51°22.219 3°8.023 8.8 26 5.9 103300 79
2004-11-24 08:57:26 51°22.224 3°8.061 9.8 27 5.9 103280 80
2004-11-24 08:57:32 51°22.228 3°8.099 9.3 20 5.9 103280 80
2004-11-24 08:57:36 51°22.232 3°8.124 9.3 28 5.9 103280 80
2004-11-24 08:57:41 51°22.235 3°8.156 9.2 23 5.9 103280 80
2004-11-24 08:57:46 51°22.239 3°8.188 9.1 23 5.9 103290 80
2004-11-24 08:57:51 51°22.243 3°8.219 9.7 27 5.9 103290 80
2004-11-24 08:57:54 51°22.245 3°8.239 10 27 5.9 103290 80
2004-11-24 08:58:02 51°22.251 3°8.289 9.3 25 5.9 103290 80
2004-11-24 08:58:04 51°22.252 3°8.302 9.5 27 5.8 103290 80
2004-11-24 08:58:10 51°22.254 3°8.341 9.6 22 5.8 103290 80
2004-11-24 08:58:22 51°22.256 3°8.418 10 23 5.8 103290 80
2004-11-24 08:58:24 51°22.256 3°8.431 10 23 5.8 103290 80
2004-11-24 08:58:32 51°22.254 3°8.483 9.9 21 5.8 103290 80
2004-11-24 08:58:36 51°22.254 3°8.508 9.7 24 5.8 103290 80
2004-11-24 08:58:42 51°22.252 3°8.547 9.7 21 5.8 103290 80
2004-11-24 08:58:46 51°22.252 3°8.573 10 28 5.8 103280 80
2004-11-24 08:58:52 51°22.25 3°8.611 9.9 23 5.8 103280 80
2004-11-24 08:58:56 51°22.251 3°8.637 9.8 26 5.7 103280 80
2004-11-24 08:59:04 51°22.25 3°8.688 9.8 28 5.7 103280 80
2004-11-24 08:59:10 51°22.25 3°8.727 9.8 22 5.7 103280 80
2004-11-24 08:59:22 51°22.252 3°8.805 9.7 23 5.7 103280 80
2004-11-24 08:59:28 51°22.252 3°8.843 9.3 23 5.7 103280 80
2004-11-24 08:59:29 51°22.252 3°8.849 9.6 24 5.7 103280 80
2004-11-24 08:59:37 51°22.253 3°8.901 10 21 5.7 103290 80
2004-11-24 08:59:41 51°22.254 3°8.927 10.5 24 5.7 103290 80
2004-11-24 08:59:46 51°22.254 3°8.96 10.4 23 5.7 103290 80
2004-11-24 08:59:52 51°22.255 3°8.998 9.6 20 5.7 103290 80
2004-11-24 08:59:56 51°22.256 3°9.024 10.3 26 5.7 103300 80
2004-11-24 09:00:00 51°22.256 3°9.05 9.9 21 5.7 103300 80
2004-11-24 09:00:06 51°22.257 3°9.089 10.3 23 5.7 103290 80
2004-11-24 09:00:12 51°22.257 3°9.127 9.8 24 5.7 103290 80
2004-11-24 09:00:14 51°22.257 3°9.14 9.9 26 5.7 103290 80
2004-11-24 09:00:25 51°22.26 3°9.212 10.6 28 5.7 103290 80
2004-11-24 09:00:30 51°22.259 3°9.244 10.3 21 5.7 103290 80
2004-11-24 09:00:36 51°22.261 3°9.283 10.7 30 5.7 103290 80
2004-11-24 09:00:41 51°22.261 3°9.315 10 26 5.7 103290 80
2004-11-24 09:00:53 51°22.263 3°9.393 10.2 29 5.7 103290 80
2004-11-24 09:00:59 51°22.263 3°9.432 10.1 27 5.7 103280 80
2004-11-24 09:01:04 51°22.263 3°9.464 10.6 28 5.7 103280 80
2004-11-24 09:01:08 51°22.263 3°9.49 9.8 24 5.7 103300 80
2004-11-24 09:01:14 51°22.263 3°9.529 10.5 28 5.7 103300 80
2004-11-24 09:01:18 51°22.263 3°9.555 10.6 24 5.7 103280 80
2004-11-24 09:01:24 51°22.26 3°9.593 10.2 21 5.7 103280 80
2004-11-24 09:01:28 51°22.258 3°9.619 10.4 26 5.6 103290 80
2004-11-24 09:01:34 51°22.255 3°9.658 9.7 22 5.6 103290 80
2004-11-24 09:01:38 51°22.253 3°9.684 10 25 5.6 103300 80
2004-11-24 09:01:44 51°22.249 3°9.722 10.9 20 5.6 103300 80
2004-11-24 09:01:49 51°22.248 3°9.755 10.8 19 5.6 103290 80
2004-11-24 09:01:54 51°22.246 3°9.787 9.6 19 5.6 103290 80
2004-11-24 09:01:59 51°22.246 3°9.82 9.8 21 5.6 103290 80
2004-11-24 09:02:04 51°22.245 3°9.853 10.5 18 5.6 103290 80
2004-11-24 09:02:09 51°22.245 3°9.885 9.9 20 5.6 103300 80
2004-11-24 09:02:12 51°22.243 3°9.905 10.5 18 5.6 103300 80
2004-11-24 09:02:19 51°22.239 3°9.95 10.3 21 5.6 103290 79
2004-11-24 09:02:24 51°22.235 3°9.982 10.9 18 5.6 103290 79
2004-11-24 09:02:28 51°22.23 3°10.006 10.9 17 5.6 103290 80
2004-11-24 09:02:34 51°22.223 3°10.044 10.6 18 5.6 103290 80
2004-11-24 09:02:36 51°22.22 3°10.056 10.1 18 5.6 103290 80
2004-11-24 09:02:44 51°22.211 3°10.106 10.8 21 5.6 103290 80
2004-11-24 09:02:49 51°22.205 3°10.137 10.2 23 5.6 103290 80
2004-11-24 09:02:54 51°22.2 3°10.169 10 20 5.6 103290 80
2004-11-24 09:02:59 51°22.194 3°10.2 9.9 21 5.6 103290 80
2004-11-24 09:03:04 51°22.189 3°10.232 10.5 21 5.6 103290 80
2004-11-24 09:03:08 51°22.185 3°10.258 10.2 18 5.6 103290 79
2004-11-24 09:03:12 51°22.181 3°10.283 10.2 23 5.6 103290 79
2004-11-24 09:03:22 51°22.172 3°10.348 10.7 23 5.6 103290 79
2004-11-24 09:03:27 51°22.166 3°10.379 10.8 16 5.6 103300 79
2004-11-24 09:03:32 51°22.162 3°10.411 11.2 24 5.6 103300 79
2004-11-24 09:03:36 51°22.157 3°10.437 10.4 21 5.6 103300 79
2004-11-24 09:04:02 51°22.142 3°10.608 9.6 21 5.6 103300 79
2004-11-24 09:04:08 51°22.142 3°10.648 10.1 27 5.6 103300 79
2004-11-24 09:04:12 51°22.142 3°10.675 9.7 21 5.6 103300 79
2004-11-24 09:04:16 51°22.143 3°10.702 9.4 21 5.6 103280 79
2004-11-24 09:04:22 51°22.144 3°10.743 9.6 24 5.6 103280 79
2004-11-24 09:04:26 51°22.146 3°10.769 8.8 30 5.7 103280 79
2004-11-24 09:04:32 51°22.15 3°10.809 8.3 24 5.7 103280 79
2004-11-24 09:04:36 51°22.154 3°10.835 9.6 27 5.7 103290 79
2004-11-24 09:04:54 51°22.171 3°10.954 10.1 29 5.7 103290 79
2004-11-24 09:05:00 51°22.176 3°10.994 10.3 29 5.7 103290 79
2004-11-24 09:05:04 51°22.181 3°11.019 10 33 5.7 103290 79
2004-11-24 09:05:09 51°22.186 3°11.052 10.2 31 5.7 103290 79
2004-11-24 09:05:14 51°22.192 3°11.085 10.1 33 5.7 103290 79
2004-11-24 09:05:19 51°22.197 3°11.118 9.5 32 5.7 103280 79
2004-11-24 09:05:24 51°22.205 3°11.15 9.5 35 5.7 103280 79
2004-11-24 09:05:28 51°22.209 3°11.176 9.5 30 5.7 103290 79
2004-11-24 09:05:34 51°22.218 3°11.214 10.5 32 5.7 103290 79
2004-11-24 09:05:38 51°22.223 3°11.241 9.7 29 5.7 103290 79
2004-11-24 09:05:44 51°22.231 3°11.279 9.9 37 5.7 103290 79
2004-11-24 09:05:49 51°22.238 3°11.312 9.4 31 5.7 103280 79
2004-11-24 09:05:54 51°22.245 3°11.343 8.7 33 5.7 103280 79
2004-11-24 09:05:59 51°22.251 3°11.376 9 28 5.7 103290 79
2004-11-24 09:06:04 51°22.259 3°11.409 9.9 28 5.7 103290 79
2004-11-24 09:06:08 51°22.264 3°11.435 9.6 30 5.7 103290 79
2004-11-24 09:06:11 51°22.268 3°11.454 9.6 23 5.7 103290 79
2004-11-24 09:06:19 51°22.278 3°11.506 9.5 29 5.7 103290 79
2004-11-24 09:06:24 51°22.285 3°11.539 9.8 28 5.7 103290 79
2004-11-24 09:06:28 51°22.29 3°11.565 9.6 30 5.7 103280 79
2004-11-24 09:06:34 51°22.297 3°11.604 9.4 27 5.7 103280 79
2004-11-24 09:06:38 51°22.302 3°11.631 9.5 25 5.7 103280 79
2004-11-24 09:06:44 51°22.31 3°11.67 9.3 29 5.7 103280 79
2004-11-24 09:06:48 51°22.314 3°11.696 9.9 26 5.7 103290 79
2004-11-24 09:06:52 51°22.32 3°11.722 9.8 31 5.7 103290 79
2004-11-24 09:06:58 51°22.327 3°11.762 9.3 28 5.7 103280 79
2004-11-24 09:07:08 51°22.34 3°11.826 9.7 30 5.7 103280 79
2004-11-24 09:07:16 51°22.35 3°11.879 10.1 28 5.7 103280 79
2004-11-24 09:07:18 51°22.353 3°11.892 10.3 36 5.6 103290 79
2004-11-24 09:07:24 51°22.36 3°11.932 9.1 29 5.6 103290 79
2004-11-24 09:07:38 51°22.377 3°12.024 9.4 30 5.6 103300 79
2004-11-24 09:07:44 51°22.384 3°12.063 10.2 29 5.6 103300 79
2004-11-24 09:07:48 51°22.389 3°12.089 9.4 29 5.6 103290 79
2004-11-24 09:07:54 51°22.397 3°12.129 9.1 29 5.6 103290 79
2004-11-24 09:07:58 51°22.402 3°12.155 9.1 34 5.6 103290 79
2004-11-24 09:08:04 51°22.409 3°12.194 9 34 5.6 103290 79
2004-11-24 09:08:09 51°22.416 3°12.227 9.2 38 5.6 103300 79
2004-11-24 09:08:14 51°22.422 3°12.26 9.3 31 5.6 103300 79
2004-11-24 09:08:18 51°22.426 3°12.286 9.1 35 5.6 103300 79
2004-11-24 09:08:24 51°22.434 3°12.325 9.3 34 5.6 103300 79
2004-11-24 09:08:28 51°22.439 3°12.352 9.2 31 5.6 103290 79
2004-11-24 09:08:34 51°22.446 3°12.391 8.9 32 5.6 103290 79
2004-11-24 09:08:38 51°22.451 3°12.418 9 27 5.5 103300 80
2004-11-24 09:08:44 51°22.458 3°12.457 8.7 30 5.5 103300 80
2004-11-24 09:08:48 51°22.463 3°12.483 8.4 30 5.5 103300 79
2004-11-24 09:08:54 51°22.47 3°12.523 8.8 32 5.5 103300 79
2004-11-24 09:08:59 51°22.476 3°12.556 8.5 31 5.5 103310 80
2004-11-24 09:09:04 51°22.482 3°12.589 8.4 26 5.5 103310 80
2004-11-24 09:09:08 51°22.487 3°12.615 8.5 25 5.5 103300 80
2004-11-24 09:09:26 51°22.509 3°12.735 9.4 26 5.5 103300 80
2004-11-24 09:09:32 51°22.516 3°12.774 9.2 26 5.5 103300 80
2004-11-24 09:09:36 51°22.52 3°12.801 9.4 27 5.5 103300 80
2004-11-24 09:09:40 51°22.525 3°12.827 9.5 27 5.5 103300 80
2004-11-24 09:09:45 51°22.531 3°12.861 10.1 28 5.5 103300 80
2004-11-24 09:09:50 51°22.537 3°12.894 10.3 30 5.5 103300 80
2004-11-24 09:10:08 51°22.557 3°13.013 9.8 25 5.6 103300 80
2004-11-24 09:10:13 51°22.563 3°13.046 9.4 32 5.6 103300 80
2004-11-24 09:10:16 51°22.566 3°13.066 10.2 25 5.6 103300 80
2004-11-24 09:10:26 51°22.577 3°13.133 9.4 26 5.6 103300 80
2004-11-24 09:10:32 51°22.584 3°13.173 9.7 25 5.6 103300 80
2004-11-24 09:10:36 51°22.589 3°13.199 9.4 27 5.6 103300 80
2004-11-24 09:10:42 51°22.596 3°13.239 9.3 26 5.6 103300 80
2004-11-24 09:10:58 51°22.614 3°13.345 9.7 29 5.6 103280 80
2004-11-24 09:11:04 51°22.621 3°13.385 9.3 28 5.6 103280 80
2004-11-24 09:11:08 51°22.625 3°13.412 9.8 30 5.6 103280 80
2004-11-24 09:11:14 51°22.632 3°13.452 10.1 29 5.6 103280 80
2004-11-24 09:11:18 51°22.636 3°13.479 10 26 5.6 103290 80
2004-11-24 09:11:24 51°22.643 3°13.518 9.7 27 5.6 103290 80
2004-11-24 09:11:28 51°22.647 3°13.545 9.4 27 5.6 103290 80
2004-11-24 09:11:32 51°22.652 3°13.571 9.8 30 5.6 103290 80
2004-11-24 09:11:39 51°22.66 3°13.618 9.4 28 5.6 103300 80
2004-11-24 09:11:44 51°22.665 3°13.652 8.8 25 5.6 103300 80
2004-11-24 09:11:48 51°22.67 3°13.678 9.8 29 5.6 103300 80
2004-11-24 09:11:53 51°22.675 3°13.711 9.7 28 5.6 103300 80
2004-11-24 09:11:59 51°22.682 3°13.751 9.7 30 5.6 103290 80
2004-11-24 09:12:02 51°22.685 3°13.771 9.4 35 5.6 103290 80
2004-11-24 09:12:09 51°22.693 3°13.818 9.4 33 5.6 103290 80
2004-11-24 09:12:14 51°22.698 3°13.851 9.4 33 5.6 103290 80
2004-11-24 09:12:19 51°22.704 3°13.884 9 33 5.6 103290 80
2004-11-24 09:12:24 51°22.71 3°13.917 8.9 31 5.6 103290 80
2004-11-24 09:12:26 51°22.712 3°13.931 8.8 25 5.5 103280 80
2004-11-24 09:12:50 51°22.743 3°14.088 9.2 31 5.5 103280 80
2004-11-24 09:12:54 51°22.748 3°14.114 9.6 38 5.5 103280 80
2004-11-24 09:12:58 51°22.753 3°14.14 8.9 26 5.5 103290 80
2004-11-24 09:13:04 51°22.761 3°14.18 10.1 32 5.5 103290 80
2004-11-24 09:13:07 51°22.764 3°14.2 9.7 31 5.5 103280 80
2004-11-24 09:13:14 51°22.773 3°14.246 9.9 34 5.5 103280 80
2004-11-24 09:13:20 51°22.781 3°14.285 9.1 34 5.5 103280 80
2004-11-24 09:13:28 51°22.791 3°14.338 9.5 29 5.5 103280 80
2004-11-24 09:13:34 51°22.799 3°14.378 9.7 33 5.5 103280 80
2004-11-24 09:13:38 51°22.804 3°14.404 9.2 34 5.5 103280 80
2004-11-24 09:13:44 51°22.812 3°14.443 9.4 32 5.5 103280 80
2004-11-24 09:13:48 51°22.817 3°14.469 9.5 34 5.5 103290 80
2004-11-24 09:13:55 51°22.826 3°14.514 9.2 35 5.5 103290 80
2004-11-24 09:14:00 51°22.833 3°14.547 8.8 37 5.5 103280 80
2004-11-24 09:14:02 51°22.836 3°14.56 9 38 5.5 103280 80
2004-11-24 09:14:10 51°22.848 3°14.612 8.9 29 5.4 103290 80
2004-11-24 09:14:14 51°22.854 3°14.638 9.6 34 5.4 103290 80
2004-11-24 09:14:20 51°22.863 3°14.676 8.3 31 5.4 103290 80
2004-11-24 09:14:24 51°22.87 3°14.701 9 35 5.4 103290 80
2004-11-24 09:14:30 51°22.879 3°14.739 8.8 34 5.5 103290 80
2004-11-24 09:14:34 51°22.887 3°14.764 9 32 5.5 103290 80
2004-11-24 09:14:46 51°22.908 3°14.839 9 33 5.5 103290 80
2004-11-24 09:14:50 51°22.915 3°14.864 8.9 38 5.5 103290 80
2004-11-24 09:14:56 51°22.926 3°14.901 9.2 36 5.4 103280 80
2004-11-24 09:15:00 51°22.934 3°14.925 8.4 37 5.4 103280 80
2004-11-24 09:15:05 51°22.945 3°14.954 7.8 36 5.4 103290 80
2004-11-24 09:15:10 51°22.956 3°14.982 8.5 39 5.4 103290 80
2004-11-24 09:15:14 51°22.965 3°15.005 7.6 40 5.4 103290 80
2004-11-24 09:15:20 51°22.98 3°15.037 6.9 38 5.4 103290 80
2004-11-24 09:15:26 51°22.996 3°15.067 7.3 43 5.4 103290 80
2004-11-24 09:15:31 51°23.011 3°15.09 6.4 45 5.4 103290 80
2004-11-24 09:15:34 51°23.021 3°15.102 6.2 37 5.4 103290 80
2004-11-24 09:15:40 51°23.041 3°15.124 6.5 45 5.4 103290 80
2004-11-24 09:15:45 51°23.058 3°15.139 5.3 45 5.4 103280 80
2004-11-24 09:15:50 51°23.076 3°15.153 5.3 39 5.4 103280 80
2004-11-24 09:16:02 51°23.12 3°15.182 5.1 43 5.4 103280 80
2004-11-24 09:16:07 51°23.139 3°15.193 5.1 39 5.4 103310 80
2004-11-24 09:16:12 51°23.157 3°15.204 5.4 41 5.4 103310 80
2004-11-24 09:16:17 51°23.176 3°15.215 4.8 32 5.4 103310 80